Regional Weather Roundup
Issued by NWS

Home | Current Version | Previous Version | Text Only | Print | Product List | Glossary Off
Versions: 1 2 3 4 5 6 7 8 9 10 11 12 13 14 15 16 17 18 19 20 21 22 23 24 25 26 27 28 29 30 31 32 33 34 35 36 37 38 39 40 41 42 43 44 45 46 47 48 49 50

000
ASUS43 KDMX 291807
RWRIA

WEATHER ROUNDUP FOR IOWA
NATIONAL WEATHER SERVICE DES MOINES IA
100 PM CDT FRI MAY 29 2015

NOTE: "FAIR" INDICATES FEW OR NO CLOUDS BELOW 12,000 FEET WITH NO
SIGNIFICANT WEATHER AND/OR OBSTRUCTIONS TO VISIBILITY.

* - THESE STATIONS ARE NOT NWS STATIONS...THUS NOT UNDER NWS
QUALITY CONTROL.  THEY ALSO DO NOT REPORT WEATHER SUCH
AS PRECIPITATION OR FOG.

IAZ001>003-012>014-020>022-031>034-043>046-291900-
   NORTHWEST IOWA

CITY           SKY/WX    TMP DP  RH WIND       PRES   REMARKS
CARROLL *      PTSUNNY   73  66  78 SW16      29.91S
CHEROKEE *     CLOUDY    72  65  78 W6        29.89S
DENISON *      MOSUNNY   73  68  83 SW9       29.89S
LE MARS *      PTSUNNY   72  63  73 SW5       29.91S
ORANGE CITY *  PTSUNNY   66  61  82 W5        29.91R
SHELDON *      CLOUDY    68  66  94 N6        29.89R
SIOUX CITY     CLOUDY    75  60  59 W6        29.90S
6HR MIN TEMP:  66; 6HR MAX TEMP:  75;

SPENCER        CLOUDY    73  64  73 SW10      29.89F
6HR MIN TEMP:  65; 6HR MAX TEMP:  73; 6HR PCP:  0.02;

STORM LAKE *   MOSUNNY   75  61  60 W12G18    29.91R
$$

IAZ055>058-069>071-079>083-090>094-291900-
   SOUTHWEST IOWA

CITY           SKY/WX    TMP DP  RH WIND       PRES   REMARKS
ATLANTIC *     CLOUDY    72  66  83 S13       29.93S
AUDUBON *      MOSUNNY   72  64  78 S12G18    29.94S
CLARINDA *     CLOUDY    70  66  88 S13       29.97S
COUNCIL BLFS * SUNNY     73  63  68 SW12      29.93S
CRESTON *      PTSUNNY   68  66  94 SW16      29.97S
HARLAN  *      MOSUNNY   72  72 100 S14       29.96R
LAMONI         LGT RAIN  71  64  78 SW15      29.99R
6HR MIN TEMP:  65; 6HR MAX TEMP:  73; 6HR PCP: TRACE;

RED OAK *      CLOUDY    72  66  83 S10       29.94S
SHENANDOAH *   PTSUNNY   73  66  78 SW12      29.95S
$$

IAZ047>049-059>061-072>074-084-291900-
   CENTRAL IOWA

CITY           SKY/WX    TMP DP  RH WIND       PRES   REMARKS
AMES           CLOUDY    74  65  73 SW14      29.92F
6HR MIN TEMP:  62; 6HR MAX TEMP:  74; 6HR PCP: TRACE;

ANKENY *       PTSUNNY   75  68  78 S10G17    29.93S
CHARITON *     PTSUNNY   73  64  73 SW10G18   29.97S
DES MOINES     LGT RAIN  75  66  73 SW14      29.93F
6HR MIN TEMP:  64; 6HR MAX TEMP:  75; 6HR PCP: TRACE;

GRINNELL*      CLOUDY    77  63  61 S12G17    29.94F
KNOXVILLE *      N/A     73  66  78 SW9       29.94S
MARSHALLTOWN   CLOUDY    76  64  66 S14       29.92F
6HR MIN TEMP:  64; 6HR MAX TEMP:  76;

PELLA *        CLOUDY    75  69  81 SW9       29.96S
PERRY *        LGT RAIN  72  66  83 S16       29.92S
$$

IAZ004>006-015-016-023>025-035-036-291900-
   NORTH CENTRAL IOWA

CITY           SKY/WX    TMP DP  RH WIND       PRES   REMARKS
ALGONA *       CLOUDY    70  66  88 SW7       29.91S
CLARION *      PTSUNNY   73  64  73 S10       29.91F
ESTHERVILLE    CLOUDY    69  64  84 SW8       29.90R
6HR MIN TEMP:  64; 6HR MAX TEMP:  69; 6HR PCP:  0.09;

FORT DODGE *   CLOUDY    73  63  68 S7        29.92S
MASON CITY     LGT RAIN  72  65  78 S9        29.92F
6HR MIN TEMP:  65; 6HR MAX TEMP:  73; 6HR PCP:  0.02;

FOREST CITY *  RAIN      68  64  88 W6        29.91F
IOWA FALLS *   PTSUNNY   73  64  73 S12       29.93S
$$

IAZ007>011-017>019-026>030-037>042-050>054-066-291900-
   NORTHEAST IOWA

CITY           SKY/WX    TMP DP  RH WIND       PRES   REMARKS
CEDAR RAPIDS   CLOUDY    74  67  78 SW10      29.94F
6HR MIN TEMP:  65; 6HR MAX TEMP:  74;

CHARLES CITY * MOSUNNY   75  66  73 SW9G20    29.92F
CLINTON *      PTSUNNY   75  66  73 S9        29.97S
DECORAH *      MOSUNNY   75  63  64 S9        29.91F
DUBUQUE        CLOUDY    74  67  78 SW7       29.94F
6HR MIN TEMP:  64; 6HR MAX TEMP:  74; 6HR PCP:  0.01;

MONTICELLO *   PTSUNNY   75  70  83 W6        29.93F
OELWEIN *      PTSUNNY   77  63  61 SW9G16    29.94S
WATERLOO       CLOUDY    76  63  64 SW12      29.91F
6HR MIN TEMP:  64; 6HR MAX TEMP:  77;

$$

IAZ064-065-067-068-078-291900-
   EAST CENTRAL IOWA

CITY           SKY/WX    TMP DP  RH WIND       PRES   REMARKS
DAVENPORT      PTSUNNY   76  65  68 S13       29.96S
6HR MIN TEMP:  70; 6HR MAX TEMP:  77; 6HR PCP: TRACE;

IOWA CITY      CLOUDY    74  67  78 W10       29.96S
6HR MIN TEMP:  66; 6HR MAX TEMP:  76;

MT. PLEASANT * PTSUNNY   77  67  69 S10       29.96F
MUSCATINE *    CLOUDY    77  66  69 SW9G18    29.95S
QUAD CITIES    PTSUNNY   77  68  73 SW12      29.95S
6HR MIN TEMP:  70; 6HR MAX TEMP:  77; 6HR PCP:  0.05;

$$

IAZ062-063-075>077-085>089-095>099-291900-
   SOUTHEAST IOWA

CITY           SKY/WX    TMP DP  RH WIND       PRES   REMARKS
BURLINGTON     CLOUDY    75  68  78 S12       29.97F
6HR MIN TEMP:  68; 6HR MAX TEMP:  75; 6HR PCP: TRACE;

FAIRFIELD *    MOSUNNY   77  66  69 SW13      29.95F
FORT MADISON * MOSUNNY   75  68  78 S13       29.98F
KEOKUK *       PTSUNNY   75  70  83 S9        29.97F
OSKALOOSA *      N/A     77  66  68 SW9       29.95F
CENTERVILLE *  MOSUNNY   73  73 100 SW14      29.99S
OTTUMWA        PTSUNNY   77  68  73 SW10      29.95R
6HR MIN TEMP:  65; 6HR MAX TEMP:  77;

WASHINGTON *   MOSUNNY   77  66  69 SW9       29.96F
$$

ABBREVIATIONS USED IN REMARKS
   TC - TEMPERATURES IN CELSIUS
  WCI - WIND CHILL INDEX
   HX - HEAT INDEX
  VSB - VISIBILITY
$$




USA.gov is the U.S. government's official web portal to all federal, state and local government web resources and services.